Location: Bun Machan
(52.1403°N, 7.3744°W)
Time: 18:41:10
(UTC+00:00)

Cosmos 1674 Rocket - Pass Details

Date: 14 July 2020
Orbit: 602 x 631 km, 82.5° (Epoch: 12 August)

Event Time Altitude Azimuth Distance (km) Brightness Sun altitude
Rises 02:39:29 0° 351° (N) 2,894 7.9 -11.4°
Reaches altitude 10° 02:41:46 10° 356° (N) 1,980 7.1 -11.3°
Maximum altitude 02:46:05 59° 76° (ENE) 709 4.1 -10.9°
Drops below altitude 10° 02:50:21 10° 156° (SSE) 1,950 5.8 -10.6°
Enters shadow 02:52:19 - 160° (SSE) 2,739 6.5 -10.4°
